Home   Weather   Kapurthala   Past weeks

Flag for India Past Weather in Kapurthala, Punjab, India — Yesterday and Last 2 Weeks

Now
46 °F

Fog.


Feels Like: 43 °F
Forecast: 39 / 71 °F
Wind: 7 mph from Northwest

Location: Amritsar Airport

Current Time: Jan 19, 2017 at 10:22:13 am

Latest Report: Jan 19, 2017 at 9:30 am


Visibility: 1 mi

Pressure: 30.33 "Hg

Humidity: 100%

Dew Point: 46 °F

Location of KapurthalaLocation

Past Weather in Kapurthala — Graph

°F

Kapurthala Temperature Yesterday

Maximum temperature yesterday: 55 °F (at 4:00 pm)
Minimum temperature yesterday: 43 °F (at 1:00 am)
Average temperature yesterday: 48 °F

High & Low Weather Summary for the Past Weeks

 TemperatureHumidityPressure
High70 °F (Jan 4, 2:30 pm)100% (Jan 4, 8:30 am)30.33 "Hg (Jan 4, 8:30 am)
Low34 °F (Jan 11, 7:00 am)30% (Jan 11, 3:00 pm)29.86 "Hg (Jan 6, 1:30 pm)
Average51 °F89%30.04 "Hg
* Reported Jan 4 8:30 am — Jan 19 9:05 am, Kapurthala, Weather by CustomWeather, © 2017

Note: Actual official high and low records may vary slightly from our data, if they occured in-between our weather recording intervals... More about our weather records

Advertising

Kapurthala Weather History for the Previous 24 Hours

Scroll right to see more
 ConditionsComfort  
Time TempWeatherWind HumidityBarometerVisibility
9:05 am
Thu, Jan 19
43 °FFog.No wind100%30.33 "Hg1 mi
8:30 am39 °FFog.No wind100%30.30 "Hg0 mi
8:00 am39 °FFog.No wind100%30.30 "Hg0 mi
7:30 am39 °FFog.No wind100%30.27 "Hg0 mi
7:00 am41 °FFog.No wind100%30.27 "Hg0 mi
6:30 am41 °FFog.No wind100%30.27 "Hg0 mi
6:00 am41 °FFog.No wind100%30.24 "Hg0 mi
5:30 am41 °FFog.No wind100%30.24 "Hg0 mi
5:00 am41 °FFog.No wind100%30.24 "Hg0 mi
4:30 am41 °FFog.No wind100%30.27 "Hg0 mi
4:00 am43 °FFog.No wind100%30.27 "Hg0 mi
3:00 am43 °FFog.No wind100%30.24 "Hg0 mi
2:30 am45 °FFog.No wind100%30.27 "Hg0 mi
2:00 am45 °FFog.No wind100%30.24 "Hg0 mi
1:30 am46 °FFog.No wind100%30.27 "Hg0 mi
1:00 am46 °FFog.No wind100%30.27 "Hg0 mi
12:30 am46 °FFog.No wind100%30.27 "Hg0 mi
12:00 am46 °FFog.No wind100%30.27 "Hg0 mi
11:30 pm
Wed, Jan 18
46 °FFog.No wind100%30.30 "Hg0 mi
11:00 pm46 °FFog.No wind100%30.30 "Hg0 mi
10:30 pm46 °FFog.No wind100%30.30 "Hg0 mi
10:00 pm45 °FFog.No wind100%30.27 "Hg0 mi
9:00 pm43 °FFog.No wind100%30.27 "Hg0 mi
8:30 pm46 °FFog.No wind100%30.27 "Hg1 mi
7:30 pm50 °FFog.No wind100%30.24 "Hg1 mi
7:00 pm50 °FFog.No wind100%30.24 "Hg1 mi
6:30 pm50 °FFog.No wind100%30.24 "Hg1 mi
6:00 pm52 °FFog.No wind100%30.24 "Hg1 mi
5:30 pm54 °FFog.No wind100%30.21 "Hg1 mi
5:00 pm54 °FFog.No wind100%30.24 "Hg1 mi
4:30 pm54 °FFog.No wind100%30.24 "Hg1 mi
4:00 pm55 °FFog.No wind100%30.24 "Hg1 mi
3:30 pm54 °FFog.2 mph100%30.21 "Hg1 mi
3:00 pm54 °FFog.No wind100%30.21 "Hg1 mi
2:30 pm52 °FFog.No wind100%30.24 "Hg1 mi
2:00 pm52 °FFog.No wind100%30.24 "Hg1 mi
1:30 pm50 °FFog.No wind100%30.24 "Hg1 mi
1:00 pm50 °FFog.3 mph100%30.27 "Hg1 mi
12:30 pm48 °FFog.No wind100%30.27 "Hg1 mi
11:30 am48 °FFog.No wind100%30.27 "Hg1 mi
11:00 am48 °FFog.No wind100%30.27 "Hg1 mi
10:30 am46 °FFog.No wind100%30.27 "Hg1 mi
10:00 am46 °FFog.No wind100%30.27 "Hg1 mi
Weather by CustomWeather, © 2017

See weather overviewHow to use our weather pages